STARLINK-32862, 62864

Orbit data source: Space-Track

STARLINK-32862, 62864 is a payload satellite owned by SpaceX/Seattle (US) in LEO that was launched on Sat, 01 Feb 2025 UTC via an FALCON 9 launch vehicle from the Air Force Western Test Range (AFWTR). Payload-class satellites include a variety of spacecraft equipped with specific instruments for various scientific and technological missions. These include communications satellites like Starlink; space stations such as the ISS; scientific satellites like the Hubble; Earth observation satellites from companies like Planet Labs, Umbra, and HawkEye 360; GPS; miniature CubeSats for education and research; and military/defense satellites.

Loading next visibility...
Identifier
62864, 2025-022L
Orbit
LEO
Last TLE update
1 day ago
Origin
Manufacturer
SpaceX/Seattle
Mission
Operational Commercial Communications
Bus & Motor
STARLINK V2M, Unknown motor
Mass
730 kg wet, ~700 kg dry
Launch date (UTC)
2025-02-01 (3 months ago)
Launch vehicle
FALCON 9
Launch site
Air Force Western Test Range (AFWTR)
Object type
Payload
Rocket body
Debris
Shape & HBR
Box + 2 Pan, 29 m
Radar Cross Section
33.884 m², Large (>1 m²)

Expand to show TLE details & history

TLE from 1 day ago
0 STARLINK-32862
1 62864U 25022L   25128.22919411  .00002242  00000-0  66025-4 0  9997
2 62864  53.1599 112.6490 0001007  81.6657 278.4462 15.39607520 15944
Epoch: 2025-05-08T05:30Z
Definitive object data (Epoch: 2025-05-08T05:30:02.371Z)
Latitude
-0°
Longitude
163.83643°
Altitude
448.072 km
Speed
7.645 km/s
True Right ascension
07h 30m 35s
True Declination
0° 00' 00"
Sunlit
Object was in daylight at TLE epoch
Visualization TLE readout
Latitude
9.14222°
Longitude
165.51164°
Altitude
447.236 km
Speed
7.646 km/s
Apparent Right ascension
06h 11m 42s
Apparent Declination
-15° 53' 37"
Sunlit
Object is in daylight
Visualization observer readout
Local Sidereal Time
16:11:12
Azimuth
303.848° NW
Elevation
-54.464°
Doppler factor
1
Orbital elements
Apogee altitude
448.214 km
Perigee altitude
446.839 km
Semi-major axis
6,825.663 km
Eccentricity
0.0001007
Inclination
53.1599°
RAAN
112.649°
Arg. of periapsis
81.6657°
True anomaly
278.43479°
Mean anomaly
278.4462°
Eccentric anomaly
278.44049°
Mean motion
3.8488 °/min
BSTAR
0.000066025
Orbital period
93.54 mins
Loading maneuver chart data...
Loading SW <> Apogee altitude chart data...
Loading historical data...
Loading historical data...
Loading historical data...
Loading historical data...
Loading historical data...
Loading historical data...
Loading historical data...

STARLINK-32862 Visibility forecast

Observer location: undefined°, undefined°

Span
Click to sort rows by Start time (UTC) header in descending order
Start Az.
Max El. time (UTC)
Max El. Az.
Max El.
End time (UTC)
End Az.
6 mins2025-05-09 08:29:06.627Z307.117° NW2025-05-09 08:32:06.627Z261.657° W43.814°2025-05-09 08:35:06.627Z136.662° SSE
5 mins2025-05-10 01:19:06.627Z231.434° WSW2025-05-10 01:21:06.627Z252.554° W44.501°2025-05-10 01:24:06.627Z48.872° ENE
5 mins2025-05-10 07:52:06.627Z318.387° NNW2025-05-10 07:54:06.627Z81.344° E42.874°2025-05-10 07:57:06.627Z124.345° SE
|